Taldom, Russia
Current Conditions -  °F | °C
As of 8:00 PM on Friday 24 Oct 2014 (Local Time) from UUEE Reporting Station
Clear Clear  
Wind Chill: 13°   Ceiling: Unl
Heat Index: 19°   Visibility: 6mi
Dew Point: 14°   Wind: 4mph
Humidity: 80%   Direction: 350°N
Pressure: 30.59"   Gusts: NA
Location:  56.73°N, 37.53°E
Report Text: UUEE 241700Z 35002MPS CAVOK M07/M10 Q1036 07000062 57150151NOSIG
Loading
Personal Weather Stations






























Interactive Weather Map
Tropical Storm Tracking
New forecast layout! Learn more

10-Day Weather Forecast

Advertisements
Track Severe Weather on mobile